Precipitable_Water
0.61 0.59 0.58 0.51 0.27 0.33 0.30 0.34 0.45 0.45 0.50 0.57 0.64 0.59 0.61 0.75 0.68 0.56 1.18 1.26 1.31 1.35 1.36 1.49 1.46 1.54 1.50 1.46 1.45 1.45 1.38 1.31 1.23 1.26 1.24 1.19 1.17 1.16 1.15 1.24 1.34 1.42 1.37 1.29 1.25 1.29 1.35 1.40 1.42
0.60 0.57 0.50 0.39 0.25 0.21 0.26 0.38 0.38 0.48 0.51 0.67 0.63 0.58 0.53 0.54 0.86 0.88 0.92 1.14 1.16 1.26 1.37 1.41 1.48 1.50 1.45 1.42 1.37 1.36 1.33 1.28 1.23 1.29 1.28 1.28 1.29 1.22 1.18 1.22 1.32 1.39 1.31 1.24 1.20 1.22 1.29 1.33 1.37
0.60 0.56 0.36 0.29 0.27 0.22 0.26 0.38 0.41 0.47 0.52 0.51 0.54 0.68 0.61 0.57 0.86 0.89 1.04 1.12 1.20 1.23 1.34 1.37 1.41 1.40 1.39 1.38 1.34 1.31 1.30 1.24 1.28 1.37 1.35 1.40 1.35 1.27 1.21 1.21 1.36 1.40 1.33 1.25 1.19 1.21 1.27 1.29 1.32
0.48 0.45 0.36 0.21 0.22 0.30 0.35 0.38 0.41 0.41 0.44 0.54 0.64 0.54 0.78 0.97 0.94 1.07 1.12 1.18 1.21 1.27 1.36 1.36 1.39 1.37 1.36 1.36 1.32 1.29 1.27 1.22 1.34 1.36 1.46 1.52 1.42 1.35 1.29 1.25 1.33 1.31 1.31 1.22 1.16 1.16 1.22 1.27 1.29
0.51 0.39 0.22 0.21 0.24 0.30 0.38 0.41 0.42 0.38 0.39 0.46 0.56 0.48 0.59 0.90 1.08 1.07 1.09 1.16 1.09 1.12 1.22 1.28 1.35 1.36 1.36 1.36 1.34 1.31 1.24 1.18 1.38 1.31 1.44 1.39 1.41 1.41 1.37 1.32 1.27 1.36 1.40 1.31 1.20 1.17 1.19 1.25 1.30
0.35 0.35 0.22 0.19 0.24 0.31 0.35 0.39 0.38 0.38 0.39 0.39 0.48 0.55 0.60 0.95 0.99 1.06 1.17 1.11 1.17 1.13 1.25 1.31 1.35 1.35 1.36 1.37 1.34 1.30 1.21 1.18 1.50 1.41 1.32 1.42 1.39 1.40 1.44 1.37 1.32 1.34 1.41 1.37 1.32 1.22 1.23 1.27 1.33
0.34 0.30 0.23 0.26 0.26 0.29 0.34 0.41 0.37 0.37 0.38 0.38 0.45 0.44 0.65 0.82 1.09 1.10 1.13 1.17 1.21 1.27 1.28 1.30 1.33 1.35 1.38 1.42 1.40 1.38 1.32 1.23 1.33 1.41 1.38 1.43 1.43 1.32 1.49 1.53 1.41 1.33 1.38 1.41 1.40 1.29 1.24 1.25 1.35
0.42 0.32 0.25 0.28 0.27 0.28 0.38 0.40 0.43 0.42 0.40 0.47 0.59 0.43 0.44 0.75 1.07 1.06 1.02 1.10 1.18 1.25 1.29 1.31 1.38 1.43 1.46 1.45 1.46 1.49 1.48 1.34 1.30 1.36 1.34 1.43 1.38 1.29 1.36 1.47 1.48 1.43 1.37 1.39 1.41 1.40 1.35 1.40 1.41
0.44 0.26 0.22 0.26 0.28 0.32 0.40 0.38 0.44 0.48 0.43 0.44 0.45 0.44 0.57 0.68 0.99 0.97 0.92 0.95 1.06 1.17 1.24 1.34 1.36 1.41 1.46 1.52 1.53 1.64 1.58 1.50 1.41 1.44 1.41 1.48 1.44 1.33 1.27 1.34 1.40 1.47 1.43 1.41 1.41 1.41 1.38 1.43 1.49
0.36 0.26 0.26 0.36 0.36 0.35 0.40 0.41 0.42 0.41 0.40 0.40 0.40 0.47 0.51 0.62 0.80 0.80 0.81 0.85 0.93 1.04 1.16 1.28 1.34 1.36 1.41 1.48 1.49 1.57 1.68 1.73 1.58 1.48 1.41 1.42 1.42 1.37 1.30 1.28 1.35 1.43 1.45 1.46 1.48 1.49 1.47 1.46 1.46
0.40 0.30 0.37 0.40 0.43 0.44 0.41 0.40 0.43 0.36 0.29 0.35 0.34 0.39 0.45 0.49 0.50 0.50 0.54 0.61 0.72 0.85 0.98 1.16 1.28 1.38 1.43 1.43 1.49 1.50 1.57 1.63 1.72 1.65 1.45 1.44 1.44 1.41 1.38 1.33 1.33 1.37 1.39 1.38 1.42 1.45 1.47 1.44 1.45
0.34 0.40 0.41 0.42 0.44 0.41 0.37 0.40 0.38 0.40 0.39 0.46 0.47 0.49 0.48 0.46 0.46 0.47 0.49 0.53 0.60 0.67 0.77 0.91 1.11 1.28 1.37 1.40 1.43 1.50 1.50 1.53 1.61 1.64 1.57 1.55 1.53 1.45 1.39 1.34 1.30 1.29 1.32 1.30 1.36 1.42 1.50 1.55 1.50
0.36 0.38 0.42 0.43 0.42 0.40 0.41 0.37 0.39 0.40 0.45 0.48 0.47 0.47 0.46 0.46 0.45 0.49 0.56 0.64 0.68 0.67 0.73 0.78 0.87 0.98 1.12 1.20 1.25 1.29 1.40 1.50 1.57 1.61 1.65 1.63 1.56 1.56 1.53 1.45 1.37 1.31 1.30 1.30 1.33 1.41 1.48 1.61 1.54
0.41 0.40 0.39 0.40 0.39 0.41 0.38 0.38 0.40 0.41 0.43 0.40 0.42 0.43 0.44 0.45 0.45 0.55 0.63 0.68 0.72 0.76 0.77 0.83 0.86 0.92 0.97 1.03 1.11 1.19 1.24 1.30 1.37 1.52 1.61 1.65 1.61 1.54 1.54 1.52 1.36 1.27 1.29 1.26 1.41 1.45 1.53 1.57 1.60
0.39 0.31 0.35 0.36 0.38 0.38 0.41 0.31 0.33 0.41 0.40 0.36 0.35 0.40 0.48 0.56 0.60 0.63 0.72 0.73 0.76 0.78 0.80 0.82 0.85 0.90 0.92 0.95 0.98 1.02 1.15 1.24 1.25 1.33 1.43 1.52 1.55 1.55 1.60 1.54 1.45 1.37 1.46 1.42 1.52 1.51 1.59 1.57 1.60
0.33 0.33 0.24 0.36 0.39 0.39 0.37 0.24 0.35 0.41 0.38 0.36 0.38 0.42 0.51 0.59 0.65 0.70 0.72 0.69 0.69 0.72 0.74 0.79 0.83 0.86 0.89 0.90 0.93 0.94 0.97 1.05 1.20 1.29 1.30 1.35 1.47 1.51 1.55 1.55 1.58 1.63 1.61 1.66 1.56 1.48 1.47 1.46 1.45
0.32 0.23 0.26 0.29 0.39 0.37 0.34 0.27 0.34 0.39 0.36 0.33 0.35 0.40 0.49 0.54 0.56 0.57 0.59 0.60 0.60 0.61 0.62 0.66 0.71 0.73 0.79 0.86 0.91 0.94 0.94 0.93 0.97 1.09 1.20 1.29 1.36 1.45 1.47 1.56 1.50 1.53 1.61 1.61 1.54 1.48 1.46 1.41 1.41
0.23 0.26 0.29 0.28 0.33 0.31 0.27 0.26 0.31 0.33 0.32 0.32 0.37 0.42 0.43 0.42 0.42 0.47 0.52 0.55 0.58 0.60 0.61 0.61 0.63 0.67 0.69 0.73 0.83 0.91 0.92 0.91 0.92 0.91 0.96 1.08 1.17 1.30 1.47 1.48 1.49 1.46 1.43 1.50 1.58 1.54 1.59 1.54 1.50
0.32 0.29 0.24 0.27 0.31 0.26 0.25 0.23 0.24 0.27 0.30 0.35 0.37 0.35 0.34 0.36 0.40 0.45 0.50 0.53 0.55 0.57 0.58 0.61 0.60 0.62 0.65 0.66 0.68 0.77 0.81 0.86 0.87 0.87 0.90 0.94 1.01 1.07 1.19 1.32 1.39 1.35 1.29 1.39 1.56 1.51 1.53 1.47 1.52
0.25 0.22 0.20 0.23 0.26 0.23 0.20 0.18 0.24 0.28 0.28 0.30 0.28 0.28 0.32 0.36 0.40 0.45 0.49 0.53 0.56 0.58 0.59 0.56 0.55 0.56 0.56 0.61 0.65 0.75 0.76 0.88 0.88 0.87 0.85 0.90 0.93 0.97 1.00 1.06 1.17 1.19 1.24 1.33 1.38 1.38 1.38 1.46 1.48
0.20 0.17 0.17 0.17 0.20 0.21 0.19 0.14 0.20 0.25 0.25 0.29 0.32 0.34 0.37 0.39 0.40 0.42 0.44 0.46 0.49 0.51 0.53 0.56 0.61 0.61 0.57 0.55 0.57 0.68 0.72 0.76 0.80 0.84 0.83 0.86 0.92 0.94 0.96 0.99 1.07 1.14 1.25 1.20 1.30 1.32 1.31 1.25 1.40
0.15 0.21 0.20 0.17 0.15 0.11 0.17 0.08 0.14 0.19 0.23 0.28 0.30 0.32 0.33 0.32 0.34 0.37 0.39 0.40 0.42 0.45 0.51 0.55 0.58 0.61 0.67 0.63 0.55 0.50 0.60 0.64 0.75 0.81 0.86 0.88 0.96 0.97 0.98 0.98 1.02 1.09 1.22 1.15 1.23 1.27 1.28 1.26 1.18
0.18 0.22 0.19 0.16 0.12 0.12 0.13 0.12 0.13 0.21 0.20 0.22 0.24 0.25 0.28 0.32 0.35 0.37 0.40 0.42 0.47 0.51 0.53 0.55 0.55 0.59 0.62 0.65 0.66 0.59 0.59 0.63 0.75 0.64 0.79 0.85 0.95 1.01 1.01 1.02 1.02 1.08 1.20 1.18 1.20 1.26 1.28 1.31 1.27
0.24 0.19 0.13 0.13 0.12 0.07 0.13 0.13 0.11 0.15 0.17 0.17 0.23 0.26 0.29 0.33 0.37 0.39 0.42 0.44 0.45 0.47 0.47 0.46 0.47 0.48 0.56 0.59 0.65 0.63 0.62 0.55 0.61 0.62 0.76 0.79 0.88 0.96 1.05 1.06 1.05 1.15 1.16 1.16 1.19 1.27 1.30 1.29 1.26
0.18 0.12 0.07 0.05 0.05 0.05 0.14 0.12 0.10 0.15 0.20 0.21 0.23 0.27 0.32 0.36 0.36 0.37 0.36 0.38 0.38 0.39 0.46 0.49 0.48 0.48 0.51 0.60 0.65 0.70 0.69 0.65 0.60 0.69 0.81 0.81 0.80 0.89 0.98 1.08 1.09 1.17 1.20 1.21 1.25 1.25 1.26 1.27 1.31
0.17 0.17 0.09 0.06 0.05 0.06 0.11 0.08 0.10 0.20 0.25 0.26 0.30 0.33 0.33 0.34 0.36 0.35 0.36 0.36 0.39 0.41 0.42 0.44 0.45 0.45 0.48 0.49 0.57 0.68 0.69 0.68 0.70 0.72 0.82 0.82 0.84 0.94 1.04 1.11 1.18 1.24 1.19 1.19 1.21 1.25 1.24 1.27 1.29
0.18 0.13 0.18 0.12 0.11 0.09 0.10 0.13 0.18 0.23 0.21 0.28 0.31 0.31 0.28 0.28 0.30 0.32 0.35 0.35 0.36 0.39 0.42 0.44 0.42 0.41 0.42 0.43 0.47 0.59 0.58 0.59 0.59 0.71 0.80 0.79 0.89 1.02 1.08 1.18 1.20 1.21 1.20 1.25 1.26 1.22 1.22 1.25 1.22
0.19 0.19 0.10 0.12 0.07 0.08 0.09 0.09 0.08 0.15 0.17 0.19 0.23 0.27 0.29 0.31 0.32 0.34 0.35 0.35 0.35 0.38 0.42 0.45 0.40 0.41 0.41 0.44 0.43 0.52 0.52 0.55 0.52 0.62 0.73 0.77 0.87 1.10 1.14 1.19 1.19 1.20 1.25 1.30 1.28 1.23 1.22 1.22 1.23
0.15 0.14 0.17 0.16 0.14 0.09 0.07 0.07 0.13 0.11 0.16 0.21 0.22 0.26 0.30 0.32 0.35 0.34 0.35 0.37 0.36 0.37 0.40 0.42 0.40 0.41 0.40 0.43 0.42 0.45 0.49 0.45 0.49 0.60 0.70 0.76 0.91 1.10 1.15 1.21 1.21 1.20 1.25 1.26 1.21 1.21 1.21 1.21 1.23
0.21 0.18 0.17 0.13 0.11 0.13 0.13 0.07 0.13 0.18 0.23 0.21 0.18 0.23 0.31 0.35 0.37 0.33 0.34 0.37 0.36 0.35 0.39 0.39 0.39 0.40 0.41 0.44 0.42 0.46 0.45 0.43 0.46 0.59 0.75 0.79 0.93 1.13 1.23 1.28 1.25 1.29 1.25 1.24 1.21 1.20 1.24 1.23 1.26
Wind_Speed
4 4 3 4 4 3 1 0 1 1 2 3 3 1 0 2 3 3 5 3 5 4 5 6 6 6 5 5 5 5 6 6 6 5 5 5 5 5 5 5 5 5 5 6 6 6 6 7 8
3 2 2 1 2 2 2 1 1 2 3 2 3 3 3 3 4 4 4 4 3 3 5 6 6 6 6 7 7 7 6 6 6 5 5 5 5 5 5 5 5 6 6 6 6 6 7 8 8
3 2 1 1 0 1 2 2 3 3 4 4 4 4 4 4 5 5 6 5 4 4 5 7 8 8 8 8 8 8 8 8 8 7 7 7 7 7 7 7 7 7 7 7 7 8 8 9 9
3 3 3 1 2 3 3 3 5 6 5 5 5 5 6 6 6 6 6 5 5 6 7 8 9 9 10 10 10 10 10 11 10 10 10 9 9 9 9 8 8 9 9 9 9 9 9 10 11
5 4 3 3 5 5 4 5 6 7 7 8 8 8 8 8 8 8 7 7 7 8 8 8 10 11 11 12 12 13 13 13 13 13 12 12 12 11 11 11 11 11 11 11 11 11 11 11 11
5 5 4 5 6 6 6 6 7 7 8 8 8 8 10 10 9 9 9 9 9 9 9 11 12 12 13 14 14 15 15 15 15 15 15 15 14 14 14 13 13 13 13 13 13 13 12 12 12
5 6 6 6 6 7 7 9 8 8 9 10 10 10 11 11 11 11 11 11 11 12 12 13 14 15 16 16 16 17 17 17 17 18 18 17 17 17 16 16 15 15 15 15 15 15 14 14 13
7 7 6 8 7 9 9 9 9 9 10 11 10 11 12 12 13 12 13 14 14 15 15 15 15 16 17 18 19 19 19 19 19 19 19 19 19 19 19 19 19 18 18 18 18 17 17 16 15
8 8 8 8 7 10 10 9 10 11 12 13 14 14 15 16 14 15 15 16 17 17 18 18 19 19 20 20 21 21 21 21 22 22 22 22 21 21 21 21 21 21 20 20 20 20 19 18 17
8 8 9 9 10 10 12 11 13 13 15 16 17 17 16 16 16 17 17 18 18 19 20 21 22 23 23 24 24 23 23 23 23 24 24 24 24 23 23 23 23 23 22 22 22 21 21 20 19
9 9 9 10 11 12 13 14 14 14 15 16 17 18 20 20 20 19 20 20 21 22 24 25 26 27 27 27 27 27 27 26 26 26 26 26 26 25 25 24 24 24 24 24 24 23 22 22 20
11 11 12 12 13 14 15 15 16 16 17 17 18 19 20 22 23 24 23 23 24 24 24 26 28 29 30 30 30 30 30 29 29 28 28 28 27 27 26 26 26 25 25 25 25 24 23 22 22
12 13 14 15 17 16 17 17 16 17 17 18 19 21 22 23 25 24 24 24 25 25 25 25 25 26 28 30 31 32 32 32 32 30 29 29 28 28 28 28 27 27 27 26 25 24 23 22 22
14 15 17 16 16 15 14 15 15 15 18 20 20 22 23 25 26 25 25 26 27 27 28 27 27 27 28 29 31 32 33 34 34 33 33 32 31 30 30 29 29 29 28 27 25 24 23 22 22
15 15 16 13 16 15 16 17 17 19 23 24 27 27 26 26 25 26 27 28 29 29 29 29 30 30 31 32 33 33 33 34 35 36 36 36 35 33 32 31 30 29 27 27 24 24 24 24 23
14 13 14 15 17 18 19 22 21 25 27 29 29 28 26 26 26 27 28 28 29 30 31 32 32 33 34 35 35 35 35 35 36 37 37 38 38 36 34 32 30 29 27 27 26 26 26 24 24
15 16 18 21 19 20 21 27 28 31 31 33 30 28 27 27 27 28 29 30 31 32 33 34 34 35 35 36 36 36 36 36 36 37 38 38 38 37 37 35 32 31 31 30 29 27 27 26 25
20 21 21 23 23 27 29 31 30 33 34 32 29 27 27 28 29 31 32 33 33 34 35 35 36 37 37 37 36 36 36 35 35 36 37 38 39 39 38 36 35 34 33 32 30 29 27 25 24
21 22 25 25 28 29 27 34 34 35 28 25 25 27 30 31 33 33 34 34 35 36 37 38 38 38 38 38 38 37 37 37 36 36 37 38 39 39 39 39 38 36 35 33 30 29 27 23 19
22 25 27 28 27 31 33 36 30 26 27 28 31 31 31 32 33 34 35 36 36 37 38 38 39 39 39 39 39 38 39 37 37 35 35 36 37 38 39 40 39 38 35 33 31 29 28 23 23
23 24 27 29 31 30 31 32 26 28 31 29 29 31 32 33 35 36 38 38 39 39 40 41 41 41 40 40 39 39 38 38 36 36 35 34 35 36 37 39 38 38 36 35 32 31 30 28 27
25 26 28 32 32 31 30 33 31 32 30 30 32 33 35 38 39 38 38 39 39 41 42 42 42 42 41 39 38 36 37 38 36 36 35 34 33 34 36 37 38 38 38 36 34 32 31 30 29
25 31 32 34 34 32 31 31 33 32 33 33 36 39 38 38 38 38 38 38 39 40 41 41 41 40 40 40 39 37 38 37 36 33 33 32 32 33 34 35 36 36 36 36 35 32 31 29 28
31 33 36 31 30 29 26 29 34 31 34 37 38 38 38 37 36 36 37 37 36 36 35 34 33 33 33 33 33 33 33 32 31 30 29 29 29 28 30 31 33 34 35 35 34 32 30 28 28
32 33 32 31 30 31 30 35 37 37 35 35 35 36 35 34 35 34 33 33 33 32 30 30 29 28 28 28 28 28 29 27 27 27 26 27 27 26 27 28 31 32 32 31 30 29 28 26 25
32 29 28 32 32 40 43 35 35 35 34 35 34 34 33 34 33 33 32 31 31 28 27 26 26 25 25 24 25 26 26 26 27 27 26 25 24 24 24 25 28 30 29 28 28 27 27 26 25
32 31 32 35 38 36 34 36 36 32 34 33 32 33 37 34 32 33 32 31 29 27 26 25 24 23 23 23 23 22 22 22 24 26 23 21 21 21 21 23 26 27 27 27 27 26 25 25 23
33 35 32 31 31 33 34 37 36 30 33 36 35 34 32 30 31 30 29 28 27 26 25 23 21 22 22 20 20 18 19 19 19 19 20 19 18 17 17 20 23 24 25 25 24 23 23 23 23
35 33 29 29 27 28 33 33 29 35 35 34 35 33 30 30 30 28 27 25 25 25 23 22 21 21 21 20 20 19 19 18 17 17 17 16 16 14 14 17 20 21 22 21 22 22 21 21 21
31 30 27 27 32 30 30 41 34 29 31 35 35 32 29 28 27 25 24 23 24 24 23 22 21 20 19 19 19 18 15 15 15 15 15 15 14 12 11 14 16 18 19 19 18 18 21 22 27
Wind_Direction
41 47 61 71 73 70 83 122 263 299 343 335 318 350 339 315 310 291 313 268 295 262 233 228 231 236 245 254 265 273 284 294 297 300 302 307 311 313 315 316 314 316 320 322 323 321 321 324 330
14 18 39 56 68 61 290 286 246 286 317 308 325 326 333 304 296 298 306 280 296 254 231 230 234 241 250 258 266 271 277 285 288 291 296 302 306 310 310 310 310 310 314 315 316 315 317 321 327
8 7 15 32 334 232 247 257 280 293 317 299 305 311 303 297 293 291 288 272 282 262 247 243 243 248 254 259 265 269 275 279 278 280 285 290 295 299 300 302 302 303 306 307 308 308 308 311 316
343 342 343 335 286 281 270 283 292 300 293 317 292 298 296 290 286 287 291 274 283 273 262 256 252 257 260 263 266 269 271 273 273 274 277 279 286 289 290 292 294 296 297 299 301 302 303 305 308
337 328 324 311 288 283 281 288 297 296 292 298 286 281 284 289 287 284 277 273 277 277 269 263 259 262 263 265 268 270 270 270 268 269 270 273 277 282 284 286 288 288 290 292 293 297 299 301 305
325 314 316 285 282 283 288 299 294 299 300 295 293 285 283 284 281 278 274 275 277 274 271 269 265 265 265 267 269 269 270 268 266 268 268 268 270 273 275 278 282 284 285 289 290 291 293 295 297
312 311 286 279 281 287 287 301 296 295 295 294 289 287 288 286 276 276 275 276 275 276 275 274 270 267 268 268 269 269 268 268 268 267 267 267 269 271 272 274 277 279 281 283 285 287 287 289 290
308 309 296 285 280 284 295 301 296 299 294 297 293 292 292 290 281 277 277 277 276 276 277 275 273 272 272 272 271 271 269 269 267 265 266 265 268 269 271 272 275 277 278 280 281 282 282 282 285
303 309 297 289 285 291 297 301 293 295 293 296 294 290 288 287 281 277 279 279 277 276 275 274 274 274 274 273 272 271 271 270 268 266 266 265 266 268 270 271 273 274 276 277 278 278 278 278 278
305 301 286 287 289 293 294 293 295 297 296 292 292 290 292 290 284 279 278 278 278 277 275 274 274 274 274 273 272 271 271 271 269 268 267 266 266 268 269 270 271 272 274 275 275 276 275 274 274
298 290 290 291 292 295 291 292 294 297 294 290 292 291 290 289 285 285 283 283 281 281 279 276 274 274 273 273 271 271 271 270 270 269 267 266 267 267 268 269 270 271 272 274 274 274 274 272 272
301 294 290 292 297 297 292 291 293 288 288 296 293 292 293 289 287 286 284 285 285 285 283 281 277 274 273 273 271 271 270 270 270 269 268 266 266 266 267 268 269 270 271 272 272 271 272 270 268
297 297 296 295 295 291 291 288 289 292 300 299 298 296 293 291 291 288 285 286 287 287 287 287 284 278 274 273 273 271 270 269 268 268 267 266 265 265 267 267 267 269 269 269 270 268 270 270 267
298 296 295 294 296 296 293 291 290 296 303 304 305 302 299 297 293 288 287 287 288 288 288 286 286 284 281 278 276 273 272 269 267 266 265 265 265 266 265 266 265 268 265 266 265 264 265 267 266
300 302 301 298 299 296 292 294 289 295 301 303 301 299 299 298 297 291 287 287 287 286 285 285 284 283 282 282 279 276 273 270 268 267 264 263 263 265 264 265 265 263 262 262 260 264 264 266 265
306 305 307 299 305 298 296 289 289 298 301 300 300 299 297 297 295 292 290 289 289 287 287 286 285 283 282 282 280 277 274 272 270 268 266 263 262 262 261 262 261 260 259 257 260 263 263 263 263
310 301 300 298 301 300 302 291 292 297 299 297 299 296 294 295 296 294 292 290 289 288 287 286 285 284 283 283 280 277 276 274 271 268 265 262 261 260 261 257 258 259 258 258 259 260 259 260 262
299 301 297 294 297 299 296 292 296 298 297 299 298 296 295 296 296 295 293 291 290 289 288 287 286 285 284 282 280 278 276 275 274 270 266 263 261 260 258 255 257 258 258 256 255 258 257 261 256
299 298 297 297 299 302 296 297 298 298 300 300 299 299 297 297 296 295 293 292 292 291 290 289 288 287 285 282 280 278 277 275 275 273 268 264 262 259 256 255 254 256 255 252 253 253 255 256 252
304 302 302 301 304 304 300 301 304 305 301 301 300 300 299 297 297 296 295 294 293 291 290 289 288 287 285 283 280 276 276 273 274 273 271 266 262 259 256 254 252 251 250 250 251 243 249 252 250
307 306 304 300 303 299 303 300 297 302 302 303 302 301 301 300 299 298 297 295 293 292 291 289 287 285 284 282 280 276 274 273 273 273 272 269 265 260 257 253 250 247 247 246 244 245 244 250 250
304 308 302 304 308 302 304 298 299 301 300 301 304 303 301 300 299 298 297 297 296 294 292 290 288 285 281 280 278 276 273 272 272 273 272 270 268 263 258 253 248 245 244 242 242 244 245 248 248
305 308 304 301 297 301 303 297 299 298 299 300 303 302 301 300 300 300 300 298 297 297 296 293 290 288 283 280 276 275 271 270 271 272 271 270 269 266 259 252 246 242 240 241 240 241 242 245 245
310 308 306 306 302 299 296 301 300 300 300 300 300 300 300 300 300 299 299 300 301 301 300 300 297 292 287 284 277 275 275 271 269 269 272 270 270 271 260 250 243 238 236 237 238 239 238 241 246
315 316 310 308 306 300 300 304 297 300 303 300 298 299 300 300 300 301 302 302 303 304 302 301 301 299 296 288 283 276 273 271 267 266 268 272 271 272 263 248 237 233 230 231 231 232 235 236 239
312 311 307 303 303 300 302 297 303 302 303 301 299 300 302 301 300 300 302 302 303 303 303 303 303 302 301 294 290 278 271 268 267 266 268 271 271 273 259 243 231 224 223 226 229 229 231 233 234
310 310 307 301 300 300 299 302 304 304 305 302 301 302 302 301 300 299 300 300 299 300 301 303 306 305 306 301 296 282 276 273 270 263 263 265 272 273 252 236 224 221 223 223 224 226 227 232 230
310 306 307 305 305 303 302 303 301 306 305 304 304 304 302 300 304 301 300 300 301 300 298 298 301 306 306 308 304 285 278 275 271 262 259 263 272 268 250 230 220 219 220 218 218 223 230 231 224
309 306 305 303 302 299 303 300 303 306 305 306 305 302 298 300 302 299 298 298 301 302 297 295 297 303 307 307 307 295 280 275 271 264 255 259 263 263 240 222 213 213 211 217 224 228 227 216 203
302 303 306 304 301 297 296 298 303 302 306 309 308 304 301 302 302 300 298 298 303 303 298 293 294 299 304 309 310 303 283 274 270 259 253 256 257 250 231 212 205 206 213 217 220 218 209 199 182